• In Portugal
  • List of Countries
  • For 7 days
  • Water Temperature
  • Satellite Maps
  • Weather Map
  • Weather Widgets
  • user-avatar
    Login

    Hourly Weather Kahramanmaras

    Today, 15 December, Friday

    Time Temperature Precipitation Wind Pressure Humidity
    00:00 +5°C° 0 mm 1 mps 659 mmHg 53%
    01:00 +5°C° 0 mm 1 mps 659 mmHg 56%
    02:00 +5°C° 0 mm 1 mps 659 mmHg 59%
    03:00 +5°C° 0 mm 1 mps 659 mmHg 62%
    04:00 +5°C° 0 mm 1 mps 659 mmHg 66%
    05:00 +4°C° 0 mm 1 mps 659 mmHg 69%
    06:00 +5°C° 0 mm 1 mps 660 mmHg 67%
    07:00 +5°C° 0 mm 0 mps 660 mmHg 66%
    08:00 +6°C° 0 mm 0 mps 661 mmHg 65%
    09:00 +7°C° 0 mm 0 mps 661 mmHg 60%
    10:00 +10°C° 0 mm 1 mps 662 mmHg 55%
    11:00 +11°C° 0 mm 1 mps 663 mmHg 50%
    12:00 +12°C° 0 mm 1 mps 663 mmHg 50%
    13:00 +12°C° 0 mm 1 mps 663 mmHg 50%
    14:00 +12°C° 0 mm 1 mps 662 mmHg 50%
    15:00 +11°C° 0 mm 1 mps 662 mmHg 57%
    16:00 +9°C° 0 mm 1 mps 662 mmHg 65%
    17:00 +6°C° 0 mm 0 mps 661 mmHg 72%
    18:00 +6°C° 0 mm 0 mps 662 mmHg 74%
    19:00 +6°C° 0 mm 0 mps 662 mmHg 76%
    20:00 +5°C° 0 mm 0 mps 662 mmHg 78%
    21:00 +5°C° 0 mm 0 mps 662 mmHg 79%
    22:00 +5°C° 0 mm 0 mps 662 mmHg 80%
    23:00 +5°C° 0 mm 0 mps 662 mmHg 81%

    Tomorrow, 16 December, Saturday

    Time Temperature Precipitation Wind Pressure Humidity
    00:00 +4°C° 0 mm 0 mps 662 mmHg 81%
    01:00 +4°C° 0 mm 0 mps 662 mmHg 81%
    02:00 +4°C° 0 mm 0 mps 662 mmHg 81%
    03:00 +4°C° 0 mm 0 mps 662 mmHg 81%
    04:00 +4°C° 0 mm 0 mps 662 mmHg 80%
    05:00 +4°C° 0 mm 0 mps 662 mmHg 80%
    06:00 +5°C° 0 mm 0 mps 663 mmHg 78%
    07:00 +5°C° 0 mm 0 mps 663 mmHg 76%
    08:00 +6°C° 0 mm 0 mps 664 mmHg 74%
    09:00 +8°C° 0 mm 1 mps 664 mmHg 71%
    10:00 +10°C° 0 mm 1 mps 664 mmHg 67%
    11:00 +11°C° 0 mm 1 mps 664 mmHg 63%
    12:00 +11°C° 0 mm 1 mps 664 mmHg 62%
    13:00 +11°C° 0 mm 1 mps 664 mmHg 62%
    14:00 +12°C° 0 mm 1 mps 663 mmHg 61%
    15:00 +10°C° 0 mm 1 mps 663 mmHg 66%
    16:00 +9°C° 0 mm 1 mps 663 mmHg 72%
    17:00 +8°C° 0 mm 1 mps 663 mmHg 77%
    18:00 +8°C° 0 mm 1 mps 663 mmHg 79%
    19:00 +7°C° 0 mm 1 mps 663 mmHg 81%
    20:00 +7°C° 0 mm 1 mps 663 mmHg 83%
    21:00 +7°C° 0 mm 1 mps 663 mmHg 83%
    22:00 +7°C° 0 mm 1 mps 663 mmHg 83%
    23:00 +7°C° 0 mm 1 mps 663 mmHg 83%

    Day after tomorrow, 17 December, Sunday

    Time Temperature Precipitation Wind Pressure Humidity
    00:00 +7°C° 0 mm 1 mps 663 mmHg 83%
    01:00 +7°C° 0 mm 1 mps 663 mmHg 84%
    02:00 +7°C° 0 mm 1 mps 663 mmHg 85%
    03:00 +7°C° 0 mm 1 mps 663 mmHg 85%
    04:00 +7°C° 0 mm 1 mps 662 mmHg 85%
    05:00 +7°C° 0 mm 1 mps 662 mmHg 85%
    06:00 +7°C° 0.1 mm 1 mps 663 mmHg 85%
    07:00 +7°C° 0.1 mm 1 mps 663 mmHg 84%
    08:00 +8°C° 0.1 mm 1 mps 663 mmHg 83%
    09:00 +8°C° 0 mm 1 mps 663 mmHg 79%
    10:00 +9°C° 0 mm 1 mps 664 mmHg 74%
    11:00 +10°C° 0 mm 1 mps 664 mmHg 69%
    12:00 +11°C° 0 mm 1 mps 663 mmHg 67%
    13:00 +11°C° 0 mm 1 mps 663 mmHg 66%
    14:00 +11°C° 0 mm 1 mps 663 mmHg 64%
    15:00 +10°C° 0 mm 1 mps 663 mmHg 68%
    16:00 +9°C° 0 mm 1 mps 663 mmHg 73%
    17:00 +8°C° 0 mm 1 mps 663 mmHg 77%
    18:00 +8°C° 0 mm 1 mps 663 mmHg 78%
    19:00 +8°C° 0 mm 1 mps 663 mmHg 80%
    20:00 +8°C° 0 mm 1 mps 664 mmHg 82%
    21:00 +7°C° 0 mm 1 mps 664 mmHg 83%
    22:00 +7°C° 0 mm 1 mps 664 mmHg 84%
    23:00 +7°C° 0 mm 1 mps 664 mmHg 85%

    18 December, Monday

    Time Temperature Precipitation Wind Pressure Humidity
    00:00 +7°C° 0 mm 1 mps 664 mmHg 85%
    01:00 +6°C° 0 mm 1 mps 664 mmHg 85%
    02:00 +5°C° 0 mm 2 mps 663 mmHg 85%
    03:00 +5°C° 0 mm 2 mps 663 mmHg 84%
    04:00 +5°C° 0 mm 2 mps 663 mmHg 84%
    05:00 +6°C° 0 mm 1 mps 663 mmHg 83%
    06:00 +5°C° 0 mm 2 mps 664 mmHg 81%
    07:00 +6°C° 0 mm 2 mps 664 mmHg 78%
    08:00 +6°C° 0 mm 2 mps 664 mmHg 76%
    09:00 +7°C° 0 mm 2 mps 664 mmHg 68%
    10:00 +9°C° 0 mm 2 mps 664 mmHg 60%
    11:00 +10°C° 0 mm 2 mps 665 mmHg 52%
    12:00 +10°C° 0 mm 2 mps 664 mmHg 51%
    13:00 +12°C° 0 mm 2 mps 663 mmHg 50%
    14:00 +12°C° 0 mm 2 mps 663 mmHg 49%
    15:00 +10°C° 0 mm 2 mps 663 mmHg 52%
    16:00 +9°C° 0 mm 2 mps 662 mmHg 56%
    17:00 +8°C° 0 mm 2 mps 662 mmHg 59%
    18:00 +7°C° 0 mm 2 mps 662 mmHg 60%
    19:00 +7°C° 0 mm 2 mps 662 mmHg 61%
    20:00 +6°C° 0 mm 2 mps 662 mmHg 62%
    21:00 +6°C° 0 mm 2 mps 662 mmHg 62%
    22:00 +6°C° 0 mm 2 mps 662 mmHg 63%
    23:00 +5°C° 0 mm 2 mps 662 mmHg 63%

    19 December, Tuesday

    Time Temperature Precipitation Wind Pressure Humidity
    00:00 +5°C° 0 mm 2 mps 662 mmHg 63%
    01:00 +5°C° 0 mm 2 mps 662 mmHg 62%
    02:00 +4°C° 0 mm 2 mps 661 mmHg 62%
    03:00 +4°C° 0 mm 2 mps 661 mmHg 61%
    04:00 +4°C° 0 mm 2 mps 661 mmHg 61%
    05:00 +4°C° 0 mm 2 mps 661 mmHg 61%
    06:00 +4°C° 0 mm 2 mps 661 mmHg 60%
    07:00 +5°C° 0 mm 2 mps 662 mmHg 60%
    08:00 +5°C° 0 mm 2 mps 662 mmHg 59%
    09:00 +6°C° 0 mm 2 mps 662 mmHg 56%
    10:00 +8°C° 0 mm 2 mps 663 mmHg 53%
    11:00 +9°C° 0 mm 2 mps 663 mmHg 50%
    12:00 +9°C° 0 mm 2 mps 663 mmHg 50%
    13:00 +10°C° 0 mm 2 mps 663 mmHg 50%
    14:00 +10°C° 0 mm 2 mps 663 mmHg 50%
    15:00 +9°C° 0 mm 2 mps 663 mmHg 54%
    16:00 +8°C° 0 mm 2 mps 663 mmHg 58%
    17:00 +6°C° 0 mm 2 mps 662 mmHg 62%
    18:00 +6°C° 0 mm 2 mps 662 mmHg 64%
    19:00 +6°C° 0 mm 2 mps 663 mmHg 66%
    20:00 +5°C° 0 mm 2 mps 663 mmHg 67%
    21:00 +5°C° 0 mm 2 mps 662 mmHg 68%
    22:00 +5°C° 0 mm 2 mps 662 mmHg 68%
    23:00 +5°C° 0 mm 2 mps 662 mmHg 69%

    20 December, Wednesday

    Time Temperature Precipitation Wind Pressure Humidity
    00:00 +4°C° 0 mm 2 mps 662 mmHg 69%
    01:00 +4°C° 0 mm 2 mps 662 mmHg 70%
    02:00 +4°C° 0 mm 2 mps 662 mmHg 70%
    03:00 +4°C° 0 mm 2 mps 662 mmHg 71%
    04:00 +3°C° 0 mm 2 mps 662 mmHg 72%
    05:00 +3°C° 0 mm 2 mps 661 mmHg 73%
    06:00 +3°C° 0 mm 2 mps 662 mmHg 72%
    07:00 +4°C° 0 mm 2 mps 662 mmHg 71%
    08:00 +4°C° 0 mm 2 mps 663 mmHg 70%
    09:00 +5°C° 0 mm 2 mps 663 mmHg 67%
    10:00 +6°C° 0 mm 2 mps 663 mmHg 64%
    11:00 +8°C° 0 mm 2 mps 663 mmHg 61%
    12:00 +8°C° 0.1 mm 2 mps 663 mmHg 62%
    13:00 +8°C° 0.1 mm 2 mps 662 mmHg 62%
    14:00 +8°C° 0.1 mm 2 mps 662 mmHg 63%
    15:00 +7°C° 0 mm 2 mps 662 mmHg 68%
    16:00 +6°C° 0 mm 2 mps 662 mmHg 72%
    17:00 +5°C° 0 mm 2 mps 662 mmHg 77%
    18:00 +5°C° 0 mm 2 mps 662 mmHg 79%
    19:00 +5°C° 0 mm 2 mps 662 mmHg 81%
    20:00 +4°C° 0 mm 2 mps 662 mmHg 83%
    21:00 +5°C° 0.2 mm 2 mps 662 mmHg 83%
    22:00 +5°C° 0.2 mm 2 mps 662 mmHg 82%
    23:00 +5°C° 0.2 mm 2 mps 662 mmHg 82%
    Show more